This is the latest recevied weather packets stored in our database for station/object KO5MO-10. If no packets are shown the sender has not sent any weather packets the latest 10 day(s).
| Time | Temp. | Humidity | Pressure | Rain* | Wind** | Luminosity | Snow |
|---|---|---|---|---|---|---|---|
| 1777416873 | 34.44° C | 11% | 1009.4 hPa | - | - | - | - |
| 1777415973 | 34.44° C | 12% | 1009.6 hPa | - | - | - | - |
| 1777415073 | 35.56° C | 12% | 1009.6 hPa | - | - | - | - |
| 1777414173 | 34.44° C | 12% | 1010 hPa | - | - | - | - |
| 1777413273 | 34.44° C | 13% | 1010.3 hPa | - | - | - | - |
| 1777412372 | 33.33° C | 12% | 1010.5 hPa | - | - | - | - |
| 1777411471 | 32.78° C | 13% | 1010.6 hPa | - | - | - | - |
| 1777410571 | 33.89° C | 13% | 1010.8 hPa | - | - | - | - |
| 1777409671 | 32.78° C | 13% | 1011 hPa | - | - | - | - |
| 1777408771 | 32.78° C | 12% | 1011 hPa | - | - | - | - |
| 1777407870 | 32.22° C | 13% | 1011.3 hPa | - | - | - | - |
| 1777406970 | 31.67° C | 14% | 1011.5 hPa | - | - | - | - |
| 1777406070 | 31.67° C | 14% | 1011.6 hPa | - | - | - | - |
| 1777405170 | 31.11° C | 16% | 1011.8 hPa | - | - | - | - |
| 1777404270 | 31.11° C | 15% | 1012 hPa | - | - | - | - |
| 1777403370 | 30.56° C | 14% | 1012.1 hPa | - | - | - | - |
| 1777402469 | 30.56° C | 14% | 1012.3 hPa | - | - | - | - |
| 1777401569 | 30.56° C | 15% | 1012.6 hPa | - | - | - | - |
| 1777400669 | 30° C | 15% | 1012.7 hPa | - | - | - | - |
| 1777399769 | 30.56° C | 15% | 1012.6 hPa | - | - | - | - |
| 1777398869 | 30° C | 16% | 1013 hPa | - | - | - | - |
| 1777397969 | 30° C | 16% | 1013 hPa | - | - | - | - |
| 1777397068 | 29.44° C | 17% | 1013 hPa | - | - | - | - |
| 1777396168 | 28.89° C | 17% | 1013 hPa | - | - | - | - |
| 1777395268 | 28.89° C | 17% | 1013.1 hPa | - | - | - | - |
* Rain since midnight (hover to see other rain measurements)
** Current wind speed in m/s (hover to see current wind gust speed)